Regional Weather Roundup
Issued by NWS

Home | Current Version | Previous Version | Text Only | Print | Product List | Glossary Off
Versions: 1 2 3 4 5 6 7 8 9 10 11 12 13 14 15 16 17 18 19 20 21 22 23 24 25 26 27 28 29 30 31 32 33 34 35 36 37 38 39 40 41 42 43 44 45 46 47 48 49 50

000
ASUS45 KCYS 292210
RWRWY

WYOMING REGIONAL WEATHER ROUNDUP
NATIONAL WEATHER SERVICE CHEYENNE WY
400 PM MDT TUE JUL 29 2014

NOTE:  "FAIR" INDICATES FEW OR NO CLOUDS BELOW 12,000 FEET
WITH NO SIGNIFICANT WEATHER AND/OR OBSTRUCTIONS TO VISIBILITY.

WYZ001-292300-
YELLOWSTONE NATIONAL PARK

CITY           SKY/WX    TMP DP  RH WIND       PRES   REMARKS
LK YELLOWSTONE   N/A     66  48  52 SE6       30.45F
W YELLOWSTONE  NOT AVBL

$$
WYZ002>013-054>058-071-098>099-292300-
NORTHERN WYOMING

CITY           SKY/WX    TMP DP  RH WIND       PRES   REMARKS
JACKSON        LGT RAIN  59  57  94 NW17      30.37R
CODY           NOT AVBL
GREYBULL       PTSUNNY   72  55  55 S10       30.25F
WORLAND        CLOUDY    66  59  78 S10       30.28S
SHERIDAN       PTSUNNY   82  46  28 S14       30.23S
BUFFALO        CLOUDY    72  52  49 S10       30.31F
GILLETTE       CLOUDY    68  57  68 W8        30.27F
HULETT         LGT RAIN  72  52  49 MISG      30.26
NEWCASTLE      FAIR      66  57  72 N5        30.29

$$
WYZ014>020-022>026-101>103-292300-
CENTRAL WYOMING

CITY           SKY/WX    TMP DP  RH WIND       PRES   REMARKS
BIG PINEY      RAIN      58  55  90 NW5       30.39F FOG
PINEDALE       LGT RAIN  57  55  94 NW9       30.40S
DUBOIS         DRIZZLE   54  52  94 CALM      30.45S
LANDER         CLOUDY    60  58  92 W8        30.35S
RIVERTON       CLOUDY    61  58  90 NW7       30.35F
CASPER         PTSUNNY   67  49  52 NE20      30.31F
DOUGLAS        LGT RAIN  68  55  63 NE17G23   30.27S

$$
WYZ021-027>030-104>119-292300-
SOUTHERN WYOMING

CITY           SKY/WX    TMP DP  RH WIND       PRES   REMARKS
EVANSTON       LGT RAIN  62  57  83 S9        30.35S
KEMMERER       DRIZZLE   59  54  82 NE6       30.37S
FORT BRIDGER     N/A     61  59  91 S5        30.38R
ROCK SPRINGS   CLOUDY    65  52  62 NE16      30.34R
DIXON          DRIZZLE   63  58  82 W8        30.33F
RAWLINS        CLOUDY    59  56  89 N14       30.34S
SARATOGA       TSTM      57  55  94 E5        30.36S
LARAMIE        RAIN      60  55  83 S6        30.34R
CHEYENNE       LGT RAIN  64  59  83 W3        30.27F
TORRINGTON     PTSUNNY   78  58  49 NE20G28   30.16F
PINE BLUFFS    MOCLDY    73  54  49 E9        30.21F

$$


USA.gov is the U.S. government's official web portal to all federal, state and local government web resources and services.